Philip, SD

11:15 AM MDT on March 25, 2017 (GMT -0600)
Philip

Weather History for KPHP - November, 2013

Change the Weather History Date:

Monday, November 11, 2013

  Actual Average Record
Temperature  
Mean Temperature 20 °F 36 °F  
Max Temperature 28 °F 49 °F 75 °F (2005)
Min Temperature 12 °F 23 °F -6 °F (1986)
Degree Days  
Heating Degree Days 45 29  
Month to date heating degree days 310 289  
Since 1 July heating degree days 893 992  
Cooling Degree Days 0 0  
Month to date cooling degree days 0 0  
Year to date cooling degree days 945 818  
Moisture  
Dew Point 11 °F    
Average Humidity 67    
Maximum Humidity 84    
Minimum Humidity 50    
Precipitation  
Precipitation 0.01 in 0.03 in 0.14 in (1972)
Month to date precipitation 0.40 0.30  
Year to date precipitation 15.26 16.60  
Sea Level Pressure  
Sea Level Pressure 30.62 in    
Wind  
Wind Speed 6 mph (NNE)    
Max Wind Speed 21 mph    
Max Gust Speed 25 mph    
Visibility 8 miles    
Events Snow    
T = Trace of Precipitation, MM = Missing Value Source: NWS Daily Summary

Daily Weather History Graph

Daily Weather History Graph

Search for Another Location

Airport or City:

Trip Planner

Search our weather history database for the weather conditions in past years. The results will help you decide how hot, cold, wet, or windy it might be!

Date:

Astronomy

Nov. 11, 2013 Rise Set
Actual Time 6:36 AM MST 4:23 PM MST
Civil Twilight 6:05 AM MST 4:54 PM MST
Nautical Twilight 5:30 AM MST 5:29 PM MST
Astronomical Twilight 4:57 AM MST 6:03 PM MST
Moon 1:16 PM MST (11/11) 12:11 AM MST (11/11)
Length of Visible Light 10h 48m
Length of Day
9h 47m
Waxing Gibbous, 67% of the Moon is Illuminated
Nov 11
Waxing Gibbous
Nov 17
Full
Nov 25
Last Quarter
Dec 2
New
Dec 9
First Quarter

Hourly Weather History & Observations

Time (MST) Temp. Windchill Dew Point Humidity Pressure Visibility Wind Dir Wind Speed Gust Speed Precip Events Conditions
12:22 AM 26.6 °F 13.8 °F 17.6 °F 69% 30.27 in 10.0 mi NNE 17.3 mph 21.9 mph N/A   Mostly Cloudy
12:55 AM 26.1 °F 14.5 °F 15.1 °F 63% 30.34 in 10.0 mi NNE 13.8 mph 24.2 mph N/A   Overcast
1:55 AM 25.0 °F 14.8 °F 12.0 °F 58% 30.37 in 10.0 mi NNE 10.4 mph - N/A   Overcast
2:55 AM 24.1 °F 10.6 °F 10.0 °F 55% 30.40 in 10.0 mi NNE 17.3 mph - N/A   Overcast
3:14 AM 24.8 °F 12.4 °F 10.4 °F 54% 30.37 in 10.0 mi North 15.0 mph - N/A   Overcast
3:55 AM 23.0 °F 12.4 °F 12.9 °F 65% 30.45 in 10.0 mi NNE 10.4 mph - N/A   Overcast
4:55 AM 21.9 °F 9.8 °F 14.0 °F 72% 30.48 in 10.0 mi NNE 12.7 mph 20.7 mph N/A   Overcast
5:55 AM 19.9 °F 6.7 °F 15.1 °F 81% 30.53 in 4.0 mi North 13.8 mph - 0.00 in Snow Light Snow
6:55 AM 19.0 °F 6.8 °F 12.9 °F 77% 30.57 in 10.0 mi NNE 11.5 mph - 0.00 in   Overcast
7:06 AM 17.6 °F 3.7 °F 12.2 °F 79% 30.52 in 10.0 mi NNE 13.8 mph - N/A   Overcast
7:43 AM 17.6 °F 4.3 °F 12.2 °F 79% 30.54 in 1.8 mi North 12.7 mph - 0.00 in Snow Light Snow
7:55 AM 18.0 °F 5.4 °F 12.0 °F 78% 30.61 in 1.0 mi North 11.5 mph - 0.00 in Snow Light Snow
8:28 AM 17.6 °F 5.7 °F 12.2 °F 79% 30.56 in 2.0 mi North 10.4 mph - 0.01 in Snow Light Snow
8:36 AM 17.6 °F 5.0 °F 12.2 °F 79% 30.57 in 2.0 mi North 11.5 mph - 0.01 in Snow Light Snow
8:55 AM 18.0 °F 5.4 °F 12.0 °F 78% 30.65 in 3.0 mi North 11.5 mph - 0.01 in Snow Light Snow
9:04 AM 19.4 °F 6.0 °F 12.2 °F 74% 30.57 in 6.0 mi North 13.8 mph - 0.00 in Snow Light Snow
9:20 AM 19.4 °F 7.9 °F 10.4 °F 68% 30.57 in 10.0 mi NNE 10.4 mph - 0.00 in   Mostly Cloudy
9:55 AM 19.0 °F 9.0 °F 10.9 °F 71% 30.67 in 10.0 mi NNE 8.1 mph - 0.00 in   Overcast
10:55 AM 19.9 °F 9.3 °F 10.0 °F 65% 30.69 in 10.0 mi NNE 9.2 mph - N/A   Overcast
11:55 AM 21.9 °F 14.5 °F 9.0 °F 58% 30.70 in 10.0 mi NE 5.8 mph - N/A   Overcast
12:55 PM 21.9 °F 15.7 °F 7.0 °F 53% 30.71 in 10.0 mi NE 4.6 mph - N/A   Partly Cloudy
1:55 PM 23.0 °F 17.0 °F 8.1 °F 53% 30.71 in 10.0 mi NNE 4.6 mph - N/A   Clear
2:55 PM 25.0 °F - 9.0 °F 51% 30.71 in 10.0 mi Calm Calm - N/A   Clear
3:55 PM 23.0 °F - 9.0 °F 55% 30.74 in 10.0 mi Calm Calm - N/A   Clear
4:55 PM 19.9 °F 14.9 °F 10.0 °F 65% 30.76 in 10.0 mi West 3.5 mph - N/A   Clear
5:55 PM 17.1 °F - 7.0 °F 65% 30.78 in 10.0 mi Calm Calm - N/A   Clear
6:55 PM 16.0 °F - 7.0 °F 68% 30.80 in 10.0 mi Calm Calm - N/A   Clear
7:55 PM 17.1 °F - 6.1 °F 62% 30.82 in 10.0 mi Calm Calm - N/A   Clear
8:55 PM 12.9 °F - 7.0 °F 77% 30.84 in 10.0 mi Calm Calm - N/A   Clear
9:55 PM 12.9 °F - 8.1 °F 81% 30.83 in 10.0 mi Calm Calm - N/A   Clear
10:55 PM 12.0 °F - 8.1 °F 84% 30.82 in 10.0 mi Calm Calm - N/A   Clear
11:55 PM 12.9 °F - 8.1 °F 81% 30.82 in 10.0 mi Calm Calm - N/A   Clear